Showing default

COSMOS 2273, 23004

Orbit data source: Space-Track

COSMOS 2273, 23004 is a payload satellite owned by VKS (CIS) in LEO that was launched on Sat, 12 Feb 1994 UTC via a TSIKLON-3 launch vehicle from the Plesetsk Missile And Space Complex (PKMTR). Payload-class satellites include a variety of spacecraft equipped with specific instruments for various scientific and technological missions. These include communications satellites like Starlink; space stations such as the ISS; scientific satellites like the Hubble; Earth observation satellites from companies like Planet Labs, Umbra, and HawkEye 360; GPS; miniature CubeSats for education and research; and military/defense satellites.

Loading next visibility...
Identifier
23004, 1994-011F
Orbit
LEO
Country
Flag of CISCIS
Related business
Manufacturer
NPO PM
Mission
Defense Communications
Bus & Motor
STRELA-3, Unknown motor
Mass
225 kg wet, 225 kg dry
Launch date (UTC)
1994-02-12 (32 years ago)
Launch vehicle
TSIKLON-3
Launch site
Plesetsk Missile And Space Complex (PKMTR)
Object type
Payload
Rocket body
Debris
Shape & HBR
Cyl, 0.8 m
Radar Cross Section
1.257 m², Medium (>0.1 m² and < 1m²)

Expand to show TLE details & history
Last TLE update: 4 hours ago

TLE from 4 hours ago
0 COSMOS 2273
1 23004U 94011F   26127.88650513  .00000015  00000-0  23843-4 0  9998
2 23004  82.5757 340.7902 0004264 285.4219  86.1879 12.62918657485662
Epoch: 2026-05-07T21:16Z
TLE epoch observation values (Epoch: 2026-05-07T21:16:34.043Z)
Latitude
11.5168°
Longitude
157.43609°
Altitude
1,412.681 km
Speed
7.155 km/s
True Right ascension
22h 49m 12s
True Declination
11° 27' 19"
Sunlit
Object was in daylight at epoch
Visualization orbit readout
Latitude
Unknown
Longitude
Unknown
Altitude
Unknown
Speed
Unknown
Apparent Right ascension
Unknown
Apparent Declination
Unknown
Sunlit
N/A
Visualization observer readout
Local Sidereal Time
09:06:16
Azimuth
Unknown
Elevation
Unknown
Doppler factor
Unknown
Orbital elements
Apogee altitude
1,411.561 km
Perigee altitude
1,404.921 km
Semi-major axis
7,786.378 km
Eccentricity
0.00043
Inclination
82.5757°
RAAN
340.7902°
Arg. of periapsis
285.4219°
True anomaly
86.23666°
Mean anomaly
86.1879°
Eccentric anomaly
86.21228°
Mean motion
3.15893 °/min
Orbital period
113.96 mins
BSTAR
0.000023843
Loading maneuver chart data...
Computing Atmospheric mass density...
Loading historical data...
Loading historical data...
Loading historical data...
Loading historical data...
Loading historical data...
Loading historical data...
Loading historical data...

Documentation

Showing up to 5 results
|